Home > Weather > Leeds > Past weeks

Flag for United Kingdom Past Weather in Leeds, England, United Kingdom — Yesterday and Last 2 Weeks

Now
50 °F

Partly sunny.


Feels Like: 44 °F
Forecast: 52 / 56 °F
Wind: 18 mph from North

Location: Leeds And Bradford

Current Time: May 31, 2016 at 11:17:44 AM

Latest Report: May 31, 2016 at 10:20 AM


Visibility: N/A

Pressure: 30.15 "Hg

Humidity: 88%

Dew Point: 46 °F

Location of LeedsLocation

Past Weather in Leeds — Graph

°F

Leeds Temperature Yesterday

Maximum temperature yesterday: 59 °F (at 3:20 PM)
Minimum temperature yesterday: 46 °F (at 1:20 AM)
Average temperature yesterday: 52 °F

High & Low Weather Summary for the Past Weeks

 TemperatureHumidityPressure
High63 °F (May 17, 3:50 PM)100% (May 18, 7:20 AM)30.24 "Hg (May 18, 7:20 AM)
Low41 °F (May 17, 3:50 AM)49% (May 17, 5:20 PM)29.56 "Hg (May 18, 6:20 AM)
Average51 °F85%29.94 "Hg
* Reported May 16 10:20 AM — May 31 10:20 AM, Leeds, Weather by CustomWeather, © 2016

Note: Actual official high and low records may vary slightly from our data, if they occured in-between our weather recording intervals... More about our weather records

Advertising

Leeds Weather History for the Previous 24 Hours

Scroll right to see more
 ConditionsComfort  
Time TempWeatherWind HumidityBarometerVisibility
10:20 AM
Tue, May 31
50 °FPartly sunny.18 mph88%30.15 "HgN/A
9:20 AM50 °FPartly sunny.18 mph88%30.15 "HgN/A
8:50 AM50 °FBroken clouds.22 mph82%30.12 "HgN/A
8:20 AM50 °FBroken clouds.23 mph82%30.12 "HgN/A
7:50 AM50 °FBroken clouds.22 mph82%30.12 "HgN/A
7:20 AM48 °FPartly sunny.18 mph87%30.12 "HgN/A
6:50 AM48 °FPartly sunny.17 mph87%30.12 "HgN/A
6:20 AM48 °FPartly sunny.18 mph87%30.12 "HgN/A
5:50 AM48 °FPartly sunny.16 mph87%30.12 "HgN/A
5:20 AM48 °FPassing clouds.16 mph87%30.12 "HgN/A
4:50 AM48 °FPassing clouds.17 mph87%30.12 "HgN/A
4:20 AM48 °FPassing clouds.16 mph87%30.12 "HgN/A
3:50 AM48 °FPassing clouds.17 mph87%30.12 "HgN/A
3:20 AM48 °FPassing clouds.17 mph87%30.12 "HgN/A
2:50 AM48 °FClear.20 mph82%30.12 "Hg10 mi
2:20 AM48 °FPassing clouds.22 mph82%30.09 "HgN/A
1:50 AM48 °FClear.20 mph82%30.12 "Hg10 mi
1:20 AM50 °FClear.18 mph76%30.12 "Hg10 mi
12:50 AM50 °FPassing clouds.20 mph76%30.12 "HgN/A
12:20 AM50 °FClear.20 mph82%30.12 "Hg10 mi
11:50 PM
Mon, May 30
52 °FClear.18 mph77%30.12 "Hg10 mi
10:50 PM52 °FClear.15 mph82%30.12 "Hg10 mi
10:20 PM52 °FSunny.13 mph82%30.15 "Hg10 mi
9:50 PM54 °FSunny.10 mph77%30.15 "Hg10 mi
9:20 PM54 °FPassing clouds.13 mph77%30.15 "HgN/A
8:50 PM55 °FPassing clouds.15 mph72%30.12 "HgN/A
8:20 PM55 °FPassing clouds.15 mph72%30.12 "HgN/A
7:50 PM57 °FPassing clouds.15 mph72%30.12 "HgN/A
7:20 PM57 °FPartly sunny.15 mph72%30.12 "HgN/A
6:50 PM57 °FPartly sunny.16 mph72%30.12 "HgN/A
6:20 PM57 °FPartly sunny.17 mph77%30.12 "HgN/A
5:50 PM57 °FPartly sunny.14 mph77%30.12 "HgN/A
5:20 PM57 °FScattered clouds.14 mph77%30.12 "HgN/A
4:50 PM57 °FScattered clouds.13 mph77%30.12 "HgN/A
4:20 PM57 °FScattered clouds.14 mph82%30.12 "HgN/A
3:50 PM57 °FScattered clouds.13 mph77%30.12 "HgN/A
3:20 PM59 °FScattered clouds.14 mph77%30.12 "HgN/A
2:50 PM57 °FScattered clouds.14 mph82%30.12 "HgN/A
2:20 PM57 °FScattered clouds.14 mph82%30.12 "HgN/A
1:50 PM55 °FOvercast.13 mph88%30.12 "HgN/A
1:20 PM55 °FLow clouds.12 mph82%30.12 "HgN/A
12:50 PM54 °FLow clouds.13 mph88%30.12 "HgN/A
12:20 PM54 °FBroken clouds.12 mph88%30.12 "HgN/A
11:50 AM52 °FBroken clouds.10 mph94%30.12 "HgN/A
11:20 AM52 °FBroken clouds.9 mph88%30.12 "HgN/A
Weather by CustomWeather, © 2016

See weather overviewHow to use our weather pages